Time,TemperatureF,DewpointF,PressureIn,WindDirection,WindDirectionDegrees,WindSpeedMPH,WindSpeedGustMPH,Humidity,HourlyPrecipIn,Conditions,Clouds,dailyrainin,SolarRadiationWatts/m^2,SoftwareType,DateUTC
2013-04-26 00:01:00,68.0,28.0,-100.00,WNW,302,15.0,28.0,22,0.00,,,0.00,0.000000,,2013-04-26 07:01:00,
2013-04-26 00:11:00,68.0,28.0,-100.00,WNW,302,15.0,28.0,22,0.00,,,0.00,0.000000,,2013-04-26 07:11:00,
2013-04-26 00:22:00,68.0,28.0,-100.00,WNW,302,15.0,28.0,22,0.00,,,0.00,0.000000,,2013-04-26 07:22:00,
2013-04-26 00:52:00,67.0,28.0,-100.00,NW,323,12.0,20.0,23,0.00,,,0.00,0.000000,,2013-04-26 07:52:00,
2013-04-26 01:02:00,67.0,28.0,-100.00,NW,323,12.0,20.0,23,0.00,,,0.00,0.000000,,2013-04-26 08:02:00,
2013-04-26 01:11:00,67.0,28.0,-100.00,NW,323,12.0,20.0,23,0.00,,,0.00,0.000000,,2013-04-26 08:11:00,
2013-04-26 01:21:00,67.0,28.0,-100.00,NW,323,12.0,20.0,23,0.00,,,0.00,0.000000,,2013-04-26 08:21:00,
2013-04-26 01:52:00,66.0,27.0,-100.00,NW,326,9.0,16.0,23,0.00,,,-99.99,0.000000,,2013-04-26 08:52:00,
2013-04-26 02:01:00,66.0,27.0,-100.00,NW,326,9.0,16.0,23,0.00,,,-99.99,0.000000,,2013-04-26 09:01:00,
2013-04-26 02:11:00,66.0,27.0,-100.00,NW,326,9.0,16.0,23,0.00,,,-99.99,0.000000,,2013-04-26 09:11:00,
2013-04-26 02:21:00,66.0,27.0,-100.00,NW,326,9.0,16.0,23,0.00,,,-99.99,0.000000,,2013-04-26 09:21:00,
2013-04-26 04:52:00,68.0,7.0,-100.00,ENE,78,28.0,34.0,9,0.00,,,0.00,0.000000,,2013-04-26 11:52:00,
2013-04-26 05:52:00,67.0,6.0,-100.00,East,100,23.0,31.0,9,0.00,,,0.00,0.000000,,2013-04-26 12:52:00,
2013-04-26 06:01:00,67.0,6.0,-100.00,East,100,23.0,31.0,9,0.00,,,0.00,0.000000,,2013-04-26 13:01:00,
2013-04-26 06:52:00,64.0,4.0,-100.00,South,179,20.0,30.0,9,-99.99,,,0.00,5.000000,,2013-04-26 13:52:00,
2013-04-26 07:01:00,64.0,4.0,-100.00,South,179,20.0,30.0,9,-99.99,,,0.00,5.000000,,2013-04-26 14:01:00,
2013-04-26 07:52:00,68.0,7.0,-100.00,NE,39,14.0,28.0,9,0.00,,,0.00,155.000000,,2013-04-26 14:52:00,
2013-04-26 08:01:00,68.0,7.0,-100.00,NE,39,14.0,28.0,9,0.00,,,0.00,155.000000,,2013-04-26 15:01:00,
2013-04-26 08:53:00,68.0,5.0,-100.00,NNE,33,19.0,28.0,8,0.00,,,0.00,424.000000,,2013-04-26 15:53:00,
2013-04-26 09:03:00,68.0,5.0,-100.00,NNE,33,19.0,28.0,8,0.00,,,0.00,424.000000,,2013-04-26 16:03:00,
2013-04-26 09:23:00,68.0,5.0,-100.00,NNE,33,19.0,28.0,8,0.00,,,0.00,424.000000,,2013-04-26 16:23:00,
2013-04-26 09:52:00,73.0,5.0,-100.00,ENE,71,21.0,33.0,7,0.00,,,0.00,696.000000,,2013-04-26 16:52:00,
2013-04-26 10:02:00,73.0,5.0,-100.00,ENE,71,21.0,33.0,7,0.00,,,0.00,696.000000,,2013-04-26 17:02:00,
2013-04-26 10:52:00,74.0,3.0,-100.00,SSE,148,24.0,37.0,6,0.00,,,0.00,935.000000,,2013-04-26 17:52:00,
2013-04-26 11:02:00,74.0,3.0,-100.00,SSE,148,24.0,37.0,6,0.00,,,0.00,935.000000,,2013-04-26 18:02:00,
2013-04-26 11:11:00,74.0,3.0,-100.00,SSE,148,24.0,37.0,6,0.00,,,0.00,935.000000,,2013-04-26 18:11:00,
2013-04-26 11:22:00,74.0,3.0,-100.00,SSE,148,24.0,37.0,6,0.00,,,0.00,935.000000,,2013-04-26 18:22:00,
2013-04-26 11:52:00,75.0,7.0,-100.00,ESE,115,20.0,31.0,7,0.00,,,0.00,1119.000000,,2013-04-26 18:52:00,
2013-04-26 12:01:00,75.0,7.0,-100.00,ESE,115,20.0,31.0,7,0.00,,,0.00,1119.000000,,2013-04-26 19:01:00,
2013-04-26 12:11:00,75.0,7.0,-100.00,ESE,115,20.0,31.0,7,0.00,,,0.00,1119.000000,,2013-04-26 19:11:00,
2013-04-26 12:22:00,75.0,7.0,-100.00,ESE,115,20.0,31.0,7,0.00,,,0.00,1119.000000,,2013-04-26 19:22:00,
2013-04-26 12:52:00,80.0,7.0,-100.00,SE,129,16.0,30.0,6,0.00,,,0.00,1230.000000,,2013-04-26 19:52:00,
2013-04-26 13:02:00,80.0,7.0,-100.00,SE,129,16.0,30.0,6,0.00,,,0.00,1230.000000,,2013-04-26 20:02:00,
2013-04-26 13:11:00,80.0,7.0,-100.00,SE,129,16.0,30.0,6,0.00,,,0.00,1230.000000,,2013-04-26 20:11:00,
2013-04-26 13:21:00,80.0,7.0,-100.00,SE,129,16.0,30.0,6,0.00,,,0.00,1230.000000,,2013-04-26 20:21:00,
2013-04-26 13:52:00,83.0,9.0,-100.00,South,185,4.0,20.0,6,0.00,,,0.00,1262.000000,,2013-04-26 20:52:00,
2013-04-26 14:01:00,83.0,9.0,-100.00,South,185,4.0,20.0,6,0.00,,,0.00,1262.000000,,2013-04-26 21:01:00,
2013-04-26 14:11:00,83.0,9.0,-100.00,South,185,4.0,20.0,6,0.00,,,0.00,1262.000000,,2013-04-26 21:11:00,
2013-04-26 14:21:00,83.0,9.0,-100.00,South,185,4.0,20.0,6,0.00,,,0.00,1262.000000,,2013-04-26 21:21:00,
2013-04-26 14:53:00,84.0,10.0,-100.00,SE,129,5.0,22.0,6,0.00,,,0.00,1219.000000,,2013-04-26 21:53:00,
2013-04-26 15:02:00,84.0,10.0,-100.00,SE,129,5.0,22.0,6,0.00,,,0.00,1219.000000,,2013-04-26 22:02:00,
2013-04-26 15:12:00,84.0,10.0,-100.00,SE,129,5.0,22.0,6,0.00,,,0.00,1219.000000,,2013-04-26 22:12:00,
2013-04-26 15:22:00,84.0,10.0,-100.00,SE,129,5.0,22.0,6,0.00,,,0.00,1219.000000,,2013-04-26 22:22:00,
2013-04-26 15:52:00,84.0,10.0,-100.00,South,177,13.0,23.0,6,0.00,,,0.00,1099.000000,,2013-04-26 22:52:00,
2013-04-26 16:01:00,84.0,10.0,-100.00,South,177,13.0,23.0,6,0.00,,,0.00,1099.000000,,2013-04-26 23:01:00,
2013-04-26 16:11:00,84.0,10.0,-100.00,South,177,13.0,23.0,6,0.00,,,0.00,1099.000000,,2013-04-26 23:11:00,
2013-04-26 16:21:00,84.0,10.0,-100.00,South,177,13.0,23.0,6,0.00,,,0.00,1099.000000,,2013-04-26 23:21:00,
2013-04-26 16:52:00,81.0,8.0,-100.00,South,171,15.0,25.0,6,0.00,,,0.00,905.000000,,2013-04-26 23:52:00,
2013-04-26 17:01:00,81.0,8.0,-100.00,South,171,15.0,25.0,6,0.00,,,0.00,905.000000,,2013-04-27 00:01:00,
2013-04-26 17:11:00,81.0,8.0,-100.00,South,171,15.0,25.0,6,0.00,,,0.00,905.000000,,2013-04-27 00:11:00,
2013-04-26 17:21:00,81.0,8.0,-100.00,South,171,15.0,25.0,6,0.00,,,0.00,905.000000,,2013-04-27 00:21:00,
2013-04-26 17:52:00,83.0,9.0,-100.00,South,170,10.0,19.0,6,0.00,,,0.00,643.000000,,2013-04-27 00:52:00,
2013-04-26 18:01:00,83.0,9.0,-100.00,South,170,10.0,19.0,6,0.00,,,0.00,643.000000,,2013-04-27 01:01:00,
2013-04-26 18:11:00,83.0,9.0,-100.00,South,170,10.0,19.0,6,0.00,,,0.00,643.000000,,2013-04-27 01:11:00,
2013-04-26 18:21:00,83.0,9.0,-100.00,South,170,10.0,19.0,6,0.00,,,0.00,643.000000,,2013-04-27 01:21:00,
2013-04-26 18:52:00,77.0,11.0,-100.00,South,171,11.0,21.0,8,0.00,,,0.00,182.000000,,2013-04-27 01:52:00,
2013-04-26 19:01:00,77.0,11.0,-100.00,South,171,11.0,21.0,8,0.00,,,0.00,182.000000,,2013-04-27 02:01:00,
2013-04-26 19:11:00,77.0,11.0,-100.00,South,171,11.0,21.0,8,0.00,,,0.00,182.000000,,2013-04-27 02:11:00,
2013-04-26 19:22:00,77.0,11.0,-100.00,South,171,11.0,21.0,8,0.00,,,0.00,182.000000,,2013-04-27 02:22:00,
2013-04-26 19:52:00,72.0,32.0,-100.00,West,267,14.0,22.0,23,0.00,,,0.00,27.000000,,2013-04-27 02:52:00,
2013-04-26 20:53:00,72.0,26.0,-100.00,West,263,11.0,25.0,18,0.00,,,0.00,1.000000,,2013-04-27 03:53:00,
2013-04-26 21:02:00,72.0,26.0,-100.00,West,263,11.0,25.0,18,0.00,,,0.00,1.000000,,2013-04-27 04:02:00,
2013-04-26 21:12:00,72.0,26.0,-100.00,West,263,11.0,25.0,18,0.00,,,0.00,1.000000,,2013-04-27 04:12:00,
2013-04-26 21:22:00,72.0,26.0,-100.00,West,263,11.0,25.0,18,0.00,,,0.00,1.000000,,2013-04-27 04:22:00,
2013-04-26 21:53:00,73.0,28.0,-100.00,NW,313,16.0,25.0,19,0.00,,,-99.99,0.000000,,2013-04-27 04:53:00,
2013-04-26 22:02:00,73.0,28.0,-100.00,NW,313,16.0,25.0,19,0.00,,,-99.99,0.000000,,2013-04-27 05:02:00,
2013-04-26 22:12:00,73.0,28.0,-100.00,NW,313,16.0,25.0,19,0.00,,,-99.99,0.000000,,2013-04-27 05:12:00,
2013-04-26 22:22:00,73.0,28.0,-100.00,NW,313,16.0,25.0,19,0.00,,,-99.99,0.000000,,2013-04-27 05:22:00,
2013-04-26 22:52:00,71.0,24.0,-100.00,WNW,289,11.0,25.0,17,0.00,,,0.00,0.000000,,2013-04-27 05:52:00,
2013-04-26 23:01:00,71.0,24.0,-100.00,WNW,289,11.0,25.0,17,0.00,,,0.00,0.000000,,2013-04-27 06:01:00,
2013-04-26 23:12:00,71.0,24.0,-100.00,WNW,289,11.0,25.0,17,0.00,,,0.00,0.000000,,2013-04-27 06:12:00,
2013-04-26 23:22:00,71.0,24.0,-100.00,WNW,289,11.0,25.0,17,0.00,,,0.00,0.000000,,2013-04-27 06:22:00,
2013-04-26 23:52:00,72.0,25.0,-100.00,West,259,10.0,16.0,17,0.00,,,-99.99,0.000000,,2013-04-27 06:52:00,